Wind_Speed
125 124 124 123 122 122 122 123 125 126 128 130 132 133 135 137 138 140 142 143 144 145 146 146 146 146 146 145 144 143 142 141 140 139 138 137 136 135 134 133 132 131 130 128 127 126 124 123 121 120 118 117 115 114 113 111 110 109 107 105 102 99 96 93 89 86 84 81 79 77 76 74 72 71 70 68 67 66 65 63 63 62 61 60 59 58
124 124 123 122 122 123 124 125 127 128 130 132 133 135 137 139 140 142 143 145 145 146 146 147 146 146 145 145 144 143 142 141 140 139 138 137 136 135 133 132 131 130 128 127 126 124 123 121 119 118 117 115 114 113 111 110 108 106 104 102 99 96 93 89 86 84 81 79 77 75 74 72 71 69 68 67 65 64 63 62 61 60 59 58 57 56
123 123 122 123 123 124 125 127 129 130 131 133 135 137 138 140 142 143 145 146 146 147 147 146 146 146 145 144 143 142 141 140 139 138 137 136 135 133 132 131 130 128 127 125 124 122 121 119 118 116 115 114 113 111 110 108 106 104 101 99 96 93 89 86 84 81 79 77 75 73 72 70 69 68 66 65 64 63 62 60 60 59 58 57 56 55
122 122 122 123 124 125 127 129 130 132 133 135 137 138 140 142 143 145 146 146 147 147 147 146 146 145 145 144 143 142 140 139 138 137 136 135 134 133 131 130 128 127 125 124 122 121 119 118 116 115 114 112 111 110 108 106 104 101 98 95 92 89 86 84 81 79 77 75 73 71 70 69 67 66 65 64 63 62 60 59 58 57 56 55 54 54
122 122 123 124 126 127 129 131 132 134 135 137 139 140 142 144 145 146 147 147 147 147 147 146 146 145 144 143 142 141 139 138 137 136 135 134 133 131 130 128 127 125 124 122 120 119 117 116 115 114 112 111 109 108 106 103 101 98 95 92 89 86 83 81 78 76 74 73 71 69 68 67 65 64 63 62 61 60 59 58 57 56 55 54 53 52
122 123 124 125 127 129 131 132 134 135 137 139 141 142 144 145 146 147 147 147 147 147 147 146 145 145 144 142 141 140 138 137 136 135 134 132 131 130 129 127 125 124 122 120 119 117 116 115 113 112 111 109 107 105 103 100 97 94 91 88 86 83 81 78 76 74 72 71 69 67 66 65 64 63 62 61 60 59 58 57 56 55 54 53 52 51
123 124 126 127 129 130 132 134 135 137 139 141 142 144 145 146 147 148 148 147 147 146 146 146 145 144 143 142 140 139 137 136 134 133 132 131 130 129 127 126 124 122 120 119 117 116 114 113 112 110 109 107 105 102 100 97 94 91 88 85 83 80 78 76 74 72 70 69 67 66 64 63 62 61 60 59 58 57 57 56 55 54 53 52 51 50
125 126 128 129 131 132 134 135 137 139 141 142 144 145 147 147 148 148 148 148 147 146 146 145 144 143 142 141 139 138 136 134 133 132 131 130 129 127 126 124 122 120 118 117 116 114 113 112 110 108 106 104 102 99 96 93 90 87 84 82 80 77 75 73 71 70 68 67 65 64 63 62 61 60 59 58 57 56 55 54 54 53 52 51 49 49
126 128 129 131 132 134 135 137 139 141 142 143 145 146 147 148 148 148 148 147 147 146 145 144 144 143 142 140 139 137 135 133 132 131 130 129 127 126 124 122 120 118 117 115 114 113 111 110 108 106 103 101 98 95 92 89 86 84 81 79 77 75 73 71 69 68 66 65 64 62 61 60 59 58 57 57 56 55 54 53 52 51 50 49 48 47
128 129 131 132 134 135 137 139 141 142 144 144 145 146 147 147 147 147 147 147 146 146 144 144 143 142 141 140 138 136 134 133 131 129 128 127 126 124 122 120 118 117 115 114 112 111 109 107 105 103 100 97 94 91 88 85 83 81 78 76 74 72 71 69 67 66 65 63 62 61 60 59 58 57 56 55 54 53 53 52 51 50 49 48 47 46
129 131 132 133 135 137 138 140 142 144 145 146 146 147 147 147 147 147 147 146 146 145 144 143 141 140 139 138 137 135 133 132 130 128 127 125 124 122 120 118 117 115 113 112 110 109 107 104 102 99 96 93 90 87 85 82 80 78 76 74 72 70 69 67 66 64 63 62 61 60 59 58 57 56 55 54 53 53 52 51 50 49 48 47 46 45
131 132 133 135 137 138 140 142 144 145 146 147 147 148 148 147 146 146 145 145 145 144 143 142 140 139 137 136 135 134 132 130 129 127 125 124 122 120 119 117 115 113 112 110 108 106 104 101 98 95 92 89 86 84 81 79 77 75 73 71 70 68 66 65 64 63 62 61 60 59 58 57 55 55 54 53 52 52 51 50 49 48 47 46 45 44
132 133 135 136 138 140 142 143 145 146 147 147 147 147 147 147 146 145 144 144 143 142 141 140 139 138 136 134 133 131 130 129 127 125 123 122 120 118 117 115 114 112 110 108 106 104 101 98 95 92 88 86 83 80 78 76 74 72 71 69 67 66 65 63 62 61 61 60 59 58 57 55 54 54 53 52 52 51 50 49 48 47 47 45 45 44
133 135 136 138 140 142 143 144 145 146 147 147 147 146 146 145 145 144 143 143 142 141 139 138 137 136 135 133 131 130 128 127 125 123 121 119 118 116 115 114 112 110 108 106 103 101 98 94 91 88 85 82 80 77 75 73 72 70 68 67 66 64 63 62 61 60 59 58 58 56 55 54 53 52 52 51 51 50 49 49 48 47 46 45 44 43
134 136 138 140 141 143 144 145 145 146 146 146 146 146 145 145 144 143 142 142 140 139 138 137 136 135 133 131 130 128 127 125 123 121 119 117 116 114 113 112 110 108 106 103 100 97 94 91 87 84 82 79 77 75 73 71 69 68 66 65 64 62 61 60 59 58 58 57 56 55 54 53 52 51 51 50 50 49 49 48 47 46 45 45 44 43
136 137 139 141 142 143 144 145 145 146 146 146 146 145 144 144 143 142 141 140 138 137 136 135 134 133 132 130 128 126 125 123 121 119 117 116 114 112 111 110 108 106 103 100 97 93 90 87 84 81 79 76 74 72 71 69 67 66 64 63 62 61 59 59 58 57 57 56 55 54 53 52 51 50 49 49 48 48 47 47 46 45 44 44 43 42
137 138 140 141 142 144 144 145 145 145 145 145 145 144 143 143 142 141 140 138 137 135 134 132 131 131 130 129 127 124 122 120 119 117 115 114 112 110 109 107 105 102 99 96 93 90 87 84 81 78 76 74 72 70 68 67 65 64 63 61 60 59 58 57 56 56 55 54 53 53 52 50 49 49 48 48 47 47 46 46 45 44 43 43 42 41
138 139 140 141 142 144 144 145 145 145 145 144 144 144 143 142 141 139 138 136 135 133 132 131 129 128 127 126 125 122 120 118 116 115 113 111 110 108 106 104 101 98 95 92 89 86 83 81 78 76 74 71 70 68 66 65 63 62 61 60 59 58 57 56 55 54 53 53 52 51 50 49 48 47 47 46 46 45 45 44 44 43 42 42 41 40
138 139 141 141 142 143 144 144 144 144 143 143 143 142 142 141 140 138 136 135 133 131 130 129 127 126 125 123 121 119 117 115 114 112 111 109 107 105 103 100 97 94 91 88 85 82 80 77 75 73 71 69 67 66 64 63 62 60 59 58 57 56 55 55 54 53 52 51 50 50 49 48 47 46 46 45 45 44 44 43 43 42 41 41 40 39
139 140 141 141 142 142 143 143 143 143 142 142 141 141 140 139 138 136 135 133 132 130 128 127 126 124 122 121 119 117 115 113 111 110 108 106 104 102 99 96 93 90 87 84 81 79 77 75 72 70 68 67 65 64 62 61 60 59 57 57 56 55 54 53 52 52 51 50 49 48 48 47 46 46 45 44 44 43 43 42 42 41 41 40 39 38
139 140 141 141 141 141 141 142 142 142 141 141 140 140 138 137 136 134 133 131 130 128 127 125 123 122 120 118 116 114 112 111 109 107 105 103 100 98 95 92 89 86 83 80 78 75 73 72 70 68 66 64 63 61 60 59 58 57 56 55 54 53 53 52 51 50 50 49 48 47 47 46 45 45 44 44 43 42 42 41 41 40 40 39 39 38
138 139 140 140 140 140 140 140 140 140 140 139 139 137 136 135 134 132 131 129 128 126 124 123 121 119 116 115 113 111 109 108 106 104 102 99 96 93 90 87 85 82 79 77 74 72 70 69 67 65 64 62 61 59 58 57 56 55 54 54 53 52 51 50 50 49 49 48 47 47 46 45 45 44 43 43 42 41 41 40 40 39 39 38 38 37
138 139 139 139 139 139 139 139 139 139 139 138 137 135 134 133 131 130 129 127 126 124 122 120 118 115 113 111 110 108 107 105 103 100 98 95 92 89 86 83 81 78 76 74 72 70 68 66 65 63 62 60 59 57 56 55 55 54 53 52 51 51 50 49 48 48 48 47 47 46 45 45 44 43 43 42 41 41 40 39 39 38 37 37 36 36
137 138 138 138 138 138 138 138 137 137 137 136 135 133 132 130 129 128 126 125 123 121 119 117 115 113 111 109 107 106 104 102 99 97 94 91 87 85 82 79 77 75 73 71 69 67 65 64 62 61 60 58 57 56 55 54 53 52 52 51 50 49 49 48 47 47 47 46 46 46 45 44 43 43 42 41 41 40 39 38 37 37 36 36 35 35
136 136 136 137 137 137 136 136 136 135 134 133 132 131 130 129 127 126 124 122 121 119 117 114 113 111 109 107 105 103 101 98 96 93 89 86 84 81 78 76 74 72 70 68 66 64 63 61 60 59 57 56 55 54 53 52 52 51 50 50 49 48 48 47 46 46 46 46 45 45 45 44 43 42 42 41 40 39 38 37 36 36 35 34 34 33
135 135 135 135 135 136 135 135 134 133 132 131 130 129 128 127 125 124 122 120 119 116 114 113 111 109 107 105 103 100 98 95 92 89 86 83 80 78 75 73 71 69 68 66 64 62 60 59 58 56 55 54 54 53 52 51 50 50 49 49 48 47 47 46 46 45 45 45 45 45 44 44 43 42 41 41 40 39 38 37 36 35 34 33 32 32
134 134 134 134 134 134 134 133 132 131 130 129 128 127 126 124 123 122 120 118 116 114 112 111 109 107 105 103 100 97 94 91 88 85 82 79 77 75 72 70 68 66 65 63 62 60 58 57 55 54 54 53 52 51 51 50 49 49 48 48 47 47 46 46 45 45 45 45 44 44 44 44 43 42 41 41 40 39 38 37 35 34 33 32 31 31
133 133 133 133 133 132 132 131 130 129 128 127 126 125 123 122 121 120 118 116 114 112 110 108 107 105 102 100 97 94 91 87 84 81 78 76 74 72 70 68 66 64 62 60 59 58 56 55 53 53 52 51 51 50 50 49 48 48 48 47 47 46 46 45 45 45 45 44 44 44 44 43 43 42 41 40 40 38 37 36 35 34 33 32 31 30
132 132 132 132 131 131 130 129 128 127 126 125 124 123 121 120 118 117 115 113 111 109 108 106 104 102 99 96 93 90 87 83 80 78 75 73 71 69 67 65 63 61 59 58 57 56 54 53 52 51 50 50 49 49 49 48 48 47 47 47 46 46 46 45 45 45 45 44 44 44 43 43 43 42 41 40 39 38 37 36 35 34 33 32 30 29
131 131 131 130 130 129 128 127 126 125 124 123 122 121 119 117 115 114 112 110 108 106 105 103 101 98 96 93 90 86 83 80 77 74 72 70 69 67 65 63 61 59 57 55 54 53 52 51 50 49 49 48 48 48 47 47 47 47 46 46 46 45 45 45 45 45 44 44 44 44 43 43 42 42 41 40 39 38 37 36 35 34 33 31 30 29
129 129 129 128 128 127 126 125 124 123 122 121 120 118 116 115 113 111 109 107 105 103 102 100 97 95 92 88 85 82 80 77 74 72 69 68 66 64 63 61 59 58 56 54 52 51 50 50 49 48 47 47 46 46 46 46 46 46 46 45 45 45 45 45 45 44 44 44 44 43 43 43 42 41 40 40 39 38 37 36 35 33 33 31 30 30
128 127 127 126 126 125 124 123 122 121 120 119 117 115 114 112 110 108 106 104 102 100 98 96 93 90 87 84 81 78 76 74 71 69 67 65 63 62 60 58 57 56 54 52 51 49 48 48 47 47 46 45 45 45 45 45 45 45 45 45 44 45 44 44 44 44 44 44 43 43 43 42 41 41 40 39 38 37 36 35 34 33 32 31 31 30
126 125 125 124 123 123 122 121 120 119 118 116 114 112 111 109 107 105 103 101 100 97 95 92 89 86 83 80 78 75 73 71 69 67 64 63 61 60 58 56 55 54 52 51 50 49 48 47 46 46 45 45 44 44 44 44 44 44 44 44 44 44 44 44 44 44 44 44 43 43 42 42 41 40 39 38 38 37 36 35 34 33 32 31 30 29
124 123 123 122 121 121 120 119 118 116 115 113 111 110 108 106 104 102 100 99 97 94 92 89 85 82 79 77 74 73 71 69 66 64 62 60 59 57 56 54 53 52 51 50 49 48 47 46 45 45 44 44 44 44 44 44 44 44 44 43 44 44 44 44 44 44 43 43 43 42 42 41 40 39 39 38 37 36 35 34 34 33 32 31 30 29
122 121 121 120 120 119 118 117 115 114 112 111 109 107 105 103 101 100 98 96 93 91 88 85 82 78 76 73 71 70 68 67 65 62 60 58 57 55 54 53 51 50 49 48 47 46 46 45 44 44 43 43 43 43 43 43 43 43 43 43 43 43 43 44 44 43 43 43 42 42 41 40 40 39 38 37 36 36 35 34 33 33 32 31 30 29
120 119 119 118 118 117 116 115 113 111 110 108 106 104 102 100 99 97 95 93 90 87 85 81 78 75 73 71 69 67 66 64 63 61 59 57 55 54 52 51 50 48 47 47 46 45 44 44 43 43 43 42 43 43 43 43 43 43 43 43 43 43 43 43 43 43 43 42 42 41 41 40 39 39 38 37 36 35 35 34 34 33 33 32 31 30
118 117 117 117 116 115 114 112 110 109 107 105 103 101 100 98 96 94 92 89 87 84 81 78 75 73 70 68 67 65 64 62 61 59 57 55 54 52 51 50 48 47 46 45 44 44 43 42 42 42 42 42 42 42 42 43 43 43 43 43 43 43 43 43 43 43 42 42 42 41 40 40 39 39 38 37 36 35 35 34 34 33 33 33 32 31
116 116 115 115 114 112 111 109 107 106 104 102 101 99 97 95 93 91 89 86 83 81 78 75 72 70 68 66 64 63 61 60 58 57 55 54 52 51 49 48 47 46 45 44 43 43 42 41 41 41 41 41 41 41 42 42 42 42 42 42 42 43 43 43 43 42 42 42 41 41 40 40 39 38 38 37 36 35 35 34 33 33 32 32 32 31
114 114 113 112 111 109 108 106 105 103 101 99 98 96 94 92 90 88 85 83 80 77 75 72 70 68 66 64 62 60 59 57 56 55 53 52 50 49 48 47 46 45 44 43 42 42 41 41 40 40 40 41 41 41 41 42 42 42 42 42 42 42 42 42 42 42 42 42 41 41 40 40 39 38 37 37 36 35 34 34 33 32 31 30 30 29
112 112 111 109 108 106 105 103 101 100 98 97 95 93 91 89 87 85 82 79 77 74 72 70 68 66 64 62 60 58 57 55 54 53 51 50 49 48 46 45 44 44 43 42 41 41 40 40 40 40 40 40 40 41 41 41 41 42 42 42 42 42 42 42 42 42 42 42 41 41 40 40 39 38 37 37 36 35 34 33 32 31 30 29 29 28
110 109 108 106 105 103 101 100 98 97 95 94 92 91 89 86 83 81 78 76 73 71 69 67 66 65 63 61 59 57 55 54 52 51 50 49 48 46 45 44 43 42 42 41 40 40 39 39 39 39 39 39 40 40 40 41 41 41 42 42 42 42 42 42 42 42 42 42 41 41 41 40 39 39 38 37 36 35 34 33 33 32 31 30 29 28
107 106 104 103 101 100 99 97 96 94 93 91 90 88 85 83 80 77 75 72 70 68 67 65 64 62 61 60 58 56 54 53 51 50 49 47 46 45 44 43 42 42 41 40 40 39 39 39 38 38 39 39 39 39 40 40 40 41 41 41 41 41 41 41 41 42 42 42 42 42 41 41 40 39 39 38 37 36 35 34 33 32 32 31 30 29
104 102 101 100 98 97 95 94 93 92 90 89 87 85 82 80 77 74 72 70 68 66 64 63 61 60 58 57 56 54 53 51 50 49 47 46 45 44 43 42 41 41 40 39 39 38 38 38 38 38 38 38 39 39 39 39 40 40 40 41 41 41 41 41 41 41 41 42 42 42 42 41 41 40 39 39 38 37 36 35 34 33 33 32 31 30
100 99 98 96 95 94 93 92 91 89 88 86 84 82 79 76 74 71 69 67 65 64 62 61 60 58 57 55 54 52 51 50 49 47 46 45 44 43 42 41 41 40 39 39 38 38 38 37 37 37 37 38 38 38 38 39 39 39 40 40 40 40 40 41 41 41 41 41 41 42 42 42 41 41 40 40 39 38 37 36 35 34 33 33 32 31
97 96 95 94 93 91 91 90 88 87 85 83 81 79 76 73 71 69 67 65 63 62 61 59 58 56 55 53 52 50 49 48 47 46 45 44 43 42 41 40 40 39 39 38 38 37 37 37 37 37 37 37 37 37 38 38 39 39 39 40 40 40 40 40 40 40 40 40 41 41 42 42 42 41 41 40 40 39 38 37 36 36 35 33 32 31
94 93 92 91 90 89 88 88 86 85 83 81 78 76 73 71 68 66 64 63 61 60 59 57 56 55 53 52 51 49 48 46 45 44 43 43 42 41 40 40 39 38 38 38 37 37 36 36 36 36 36 37 37 37 37 38 38 38 39 39 40 40 40 39 39 39 40 40 40 40 41 41 41 41 41 41 41 40 39 39 38 37 36 35 33 32
92 91 90 89 89 88 87 86 84 82 80 78 76 73 70 68 66 64 62 61 59 58 57 56 54 53 52 51 49 48 46 45 44 43 42 41 41 40 40 39 38 38 37 37 37 36 36 36 36 36 36 36 36 37 37 37 37 38 38 39 39 39 39 39 39 39 39 39 39 39 39 40 40 40 40 40 40 40 39 39 38 37 36 35 34 33
90 89 88 88 87 86 85 84 82 80 78 75 73 70 68 66 64 62 61 59 58 56 55 54 53 51 50 49 48 47 46 44 43 42 41 40 40 39 39 38 38 37 37 37 36 36 36 36 36 35 36 36 36 36 37 37 37 37 38 38 38 39 39 39 39 39 39 39 39 39 39 39 39 39 39 39 39 38 38 38 38 37 37 36 35 34
88 87 87 86 85 85 83 82 80 78 75 73 70 68 66 64 62 60 59 57 56 55 53 52 51 50 49 48 47 46 45 43 42 41 40 39 39 38 38 38 37 37 37 36 36 36 35 35 35 35 35 35 35 36 36 36 37 37 37 38 38 38 39 39 39 39 39 38 38 38 38 38 38 38 38 38 37 37 37 37 36 36 35 35 34 33
87 86 85 85 84 83 82 80 78 76 73 71 68 66 64 62 60 59 57 56 55 53 52 51 50 48 47 47 46 45 44 43 42 41 40 39 38 38 37 37 37 37 37 36 36 36 35 35 35 34 34 34 35 35 36 36 36 36 37 37 38 38 38 39 39 39 39 38 38 38 38 38 38 38 37 37 37 36 36 35 35 35 34 34 33 33
85 85 84 83 82 81 80 78 76 74 71 68 66 64 62 60 58 57 56 55 53 52 51 49 48 47 46 45 45 44 43 42 41 40 39 38 38 37 37 36 36 36 36 36 36 35 35 35 35 34 34 34 34 34 35 35 35 36 36 37 37 37 38 38 38 39 38 38 38 38 38 38 38 38 38 37 36 36 35 34 34 34 33 33 33 32
Wind_Direction
310 310 310 311 311 311 311 311 312 313 313 314 315 316 317 317 318 318 318 318 318 318 318 319 319 319 319 319 320 320 320 320 319 319 319 319 319 319 319 318 318 318 318 318 318 317 317 317 317 316 316 316 316 316 316 316 315 315 315 315 315 315 315 314 314 314 313 313 312 312 312 311 311 310 310 309 309 308 308 307 307 306 305 304 304 303
310 310 310 311 311 311 311 312 312 313 314 315 316 317 317 317 317 317 318 318 318 318 318 319 319 319 319 319 319 320 319 319 319 319 319 319 319 319 318 318 318 318 318 318 317 317 317 317 317 316 316 316 316 316 316 316 315 315 315 315 315 315 315 315 314 314 313 313 313 312 312 312 311 311 310 310 310 309 309 308 308 307 306 305 304 303
310 310 310 311 311 311 312 312 313 314 315 316 316 317 317 317 317 317 317 318 318 318 319 319 319 319 319 319 319 319 319 319 319 319 319 319 319 318 318 318 318 318 318 318 317 317 317 317 317 316 316 316 316 316 316 316 315 315 315 315 315 315 315 315 314 314 314 313 313 313 312 312 312 311 311 311 311 310 310 309 309 308 307 306 305 304
310 310 310 311 311 311 312 313 314 315 315 316 316 316 317 317 317 317 317 318 318 318 319 319 319 319 319 319 319 319 319 319 319 319 319 318 318 318 318 318 318 318 318 318 317 317 317 317 317 316 316 316 316 316 316 316 315 315 315 315 315 315 315 314 314 314 314 313 313 313 313 312 312 312 312 312 312 311 311 310 310 309 308 307 306 305
310 310 310 311 311 312 313 313 314 315 316 316 316 316 316 316 317 317 317 318 318 318 319 319 319 319 319 319 319 319 319 319 319 319 318 318 318 318 318 318 318 318 318 318 317 317 317 317 317 317 316 316 316 316 316 316 315 315 315 315 315 315 315 314 314 314 314 314 313 313 313 313 313 313 313 313 312 312 312 311 311 310 309 308 307 306
310 310 310 311 312 312 313 314 315 315 316 316 316 316 316 317 317 317 317 318 318 318 319 319 319 319 319 319 319 319 319 319 319 318 318 318 318 318 318 318 318 318 318 318 317 317 317 317 317 317 316 316 316 316 316 316 316 315 315 315 315 315 315 314 314 314 314 314 314 314 314 314 314 314 314 313 313 313 313 312 311 311 310 309 308 307
310 310 311 311 312 313 314 315 315 315 315 316 316 316 316 317 317 317 318 318 318 318 318 318 318 318 318 318 318 318 319 319 319 318 318 318 318 318 318 318 318 318 318 318 317 317 317 317 317 317 317 316 316 316 316 316 316 315 315 315 315 315 314 314 314 314 314 314 314 314 314 314 315 315 314 314 314 313 313 312 312 311 311 310 309 308
310 310 311 312 313 314 314 315 315 315 315 315 316 316 316 317 317 317 318 318 318 318 318 318 318 318 318 318 318 318 319 319 319 318 318 318 318 318 318 318 318 318 318 318 317 317 317 317 317 317 316 316 316 316 316 316 315 315 315 315 315 315 315 315 315 315 315 315 315 315 315 315 315 315 315 315 314 314 313 313 313 312 311 310 310 308
310 311 312 313 314 314 315 315 315 315 315 315 315 316 316 316 317 317 318 318 318 318 318 318 318 318 318 318 318 319 319 319 319 319 319 318 318 318 318 318 318 318 318 317 317 317 317 317 317 317 316 316 316 316 316 316 315 315 315 315 315 315 315 315 315 315 316 316 316 316 316 316 316 316 316 315 315 314 314 314 313 313 312 311 310 310
311 312 313 314 314 314 314 314 315 315 315 315 315 316 316 316 317 317 317 318 318 318 318 318 318 318 318 318 318 319 319 319 319 319 319 319 318 318 318 318 318 318 317 317 317 317 317 317 317 317 316 316 316 316 316 316 315 315 315 315 315 315 316 316 316 316 316 317 317 317 317 317 317 316 316 316 315 315 314 314 314 313 313 312 312 311
312 313 314 314 314 314 314 314 314 315 315 315 315 316 316 316 317 317 317 318 318 318 318 318 318 318 318 318 318 319 319 319 319 319 319 319 318 318 318 318 318 317 317 317 317 317 317 317 317 316 316 316 316 316 316 316 315 315 315 315 316 316 316 317 317 317 317 317 317 318 318 318 318 317 317 316 316 315 315 315 315 314 314 313 313 312
313 313 313 314 314 314 314 314 314 315 315 315 315 316 316 317 317 317 317 317 318 318 318 318 318 318 318 318 318 318 319 319 319 319 319 319 318 318 318 318 318 317 317 317 317 317 317 317 317 316 316 316 316 316 316 316 316 315 316 316 316 317 317 318 318 318 318 318 318 318 319 318 318 318 317 317 317 316 316 316 316 315 315 315 314 313
313 313 313 313 313 314 314 314 314 314 315 315 315 316 316 317 317 317 317 317 317 317 318 318 318 318 318 318 318 318 319 319 319 319 319 318 318 318 318 318 318 317 317 317 317 317 317 317 317 317 316 316 316 316 316 316 316 316 316 317 317 318 318 319 319 319 319 319 319 319 319 319 319 319 318 318 317 317 317 317 317 317 316 316 315 315
313 313 313 313 313 313 314 314 314 314 314 315 315 316 316 316 317 317 317 317 317 317 317 317 318 318 318 318 318 319 319 319 319 319 318 318 318 318 318 317 317 317 317 317 317 317 317 317 317 317 317 317 317 316 316 317 317 317 317 317 318 319 319 319 319 320 320 320 320 320 320 320 320 319 319 318 318 318 318 318 318 318 318 317 317 317
312 313 313 313 313 313 313 314 314 314 314 315 315 316 316 316 317 317 317 317 317 317 317 318 318 318 318 318 319 319 319 319 319 319 318 318 318 318 318 317 317 317 317 317 317 317 317 317 317 317 317 317 317 317 317 317 317 318 318 318 319 320 320 320 320 320 320 320 320 320 320 320 320 320 320 319 319 319 319 319 319 319 319 319 318 318
312 312 312 312 313 313 313 313 314 314 314 315 315 316 316 316 316 317 317 317 317 317 317 318 318 318 318 318 319 319 319 319 319 319 318 318 318 318 318 317 317 317 317 317 317 317 317 317 317 318 317 318 317 318 318 318 318 319 319 319 320 320 320 321 321 321 321 321 321 321 321 321 321 321 320 320 319 319 319 319 319 319 320 319 319 319
312 312 312 312 312 313 313 313 314 314 314 315 315 316 316 316 316 317 317 317 317 317 318 318 318 318 318 318 319 319 319 319 318 318 318 318 318 318 317 317 317 317 317 318 318 318 318 318 318 318 318 318 318 318 318 319 319 319 320 320 321 321 321 321 321 321 321 321 321 321 321 321 321 321 321 320 320 320 320 320 320 320 320 320 320 320
311 312 312 312 312 312 313 313 314 314 314 315 315 316 316 316 316 316 317 317 317 317 318 318 318 318 318 318 318 319 319 319 318 318 318 318 318 318 317 317 317 317 318 318 318 318 318 318 318 318 318 319 319 319 319 319 320 320 320 321 321 321 321 322 322 322 321 321 321 322 322 322 322 322 321 321 321 321 321 321 321 321 320 320 320 320
311 311 312 312 312 312 313 313 314 314 314 315 315 316 316 316 316 316 317 317 317 318 318 318 318 318 318 318 318 318 319 318 318 318 318 318 318 318 317 317 317 318 318 318 318 318 318 318 319 319 319 319 319 320 320 320 320 321 321 321 322 322 322 322 322 322 322 322 322 322 322 323 323 323 322 322 322 322 322 322 321 321 321 321 321 321
311 311 311 312 312 312 313 313 314 314 314 315 315 315 316 316 316 317 317 317 318 318 318 318 318 318 319 319 319 319 319 318 318 318 318 318 318 318 318 318 318 318 318 318 319 319 319 319 319 319 319 320 320 320 320 321 321 321 321 322 322 322 322 322 322 322 322 322 323 323 323 323 323 323 323 323 323 323 323 323 322 322 322 322 322 321
311 311 311 312 312 312 313 313 314 314 314 315 315 315 316 316 316 317 317 318 318 318 318 318 318 319 319 319 318 318 318 318 318 318 318 318 318 318 318 318 318 318 319 319 319 319 319 319 319 319 320 320 320 321 321 321 321 322 322 322 322 323 323 323 323 323 323 323 323 324 324 324 324 324 324 324 324 324 324 324 324 323 323 322 322 322
311 311 311 312 312 312 313 313 314 314 315 315 315 315 316 316 317 317 317 318 318 318 318 318 319 319 319 318 318 318 318 318 318 318 318 318 318 318 318 318 318 319 319 319 319 319 319 319 320 320 320 320 321 321 321 321 322 322 322 323 323 323 323 323 324 324 324 324 324 325 325 325 325 325 326 325 326 325 325 325 324 324 323 323 323 322
310 311 311 312 312 313 313 313 314 314 315 315 315 316 316 316 317 317 317 318 318 318 318 318 319 319 319 318 318 318 318 318 318 318 318 318 318 318 319 319 319 319 319 319 320 320 320 320 320 320 321 321 321 321 322 322 322 322 323 323 323 324 324 324 324 325 325 325 325 326 326 326 327 327 327 327 327 326 326 326 325 325 324 323 323 322
310 311 311 312 312 313 313 314 314 314 315 315 315 316 316 316 317 317 317 318 318 318 318 319 319 319 319 319 319 318 318 318 318 318 318 318 319 319 319 319 320 320 320 320 320 320 320 320 321 321 321 321 321 322 322 322 322 323 323 324 324 324 325 325 325 326 326 326 327 327 327 327 328 328 328 328 328 327 327 327 326 325 325 324 323 322
310 311 311 312 312 313 313 314 314 314 315 315 316 316 316 317 317 317 318 318 318 319 319 319 319 319 319 319 319 319 319 319 319 319 319 319 319 319 320 320 320 320 320 320 321 321 321 321 321 321 321 321 322 322 322 323 323 323 324 324 325 325 326 326 327 327 327 328 328 328 329 329 329 329 329 329 329 328 328 327 327 326 325 324 323 323
310 311 311 312 313 313 313 314 314 315 315 315 316 316 317 317 318 318 318 318 319 319 319 319 319 319 319 319 319 319 319 319 319 319 320 320 320 320 321 321 321 321 321 321 321 321 321 321 321 321 321 322 322 322 323 323 324 324 325 325 326 326 327 327 328 328 329 329 329 330 330 330 330 330 330 330 329 329 329 328 327 326 326 325 324 323
311 311 312 312 313 313 314 314 314 315 315 316 316 317 317 318 318 318 319 319 319 319 319 319 319 319 319 319 319 320 320 320 320 320 320 321 321 321 321 322 322 322 321 321 322 322 322 322 321 322 322 322 323 323 323 324 325 325 326 326 327 327 328 329 329 330 330 331 331 331 331 331 331 331 331 331 330 330 329 329 328 327 326 325 324 323
311 311 312 313 313 313 314 314 315 315 316 316 317 317 318 318 318 319 319 319 320 320 319 319 319 319 319 320 320 320 320 320 320 321 321 321 322 322 322 322 322 322 322 322 322 322 322 322 322 322 323 323 323 324 324 325 326 326 327 327 328 329 329 330 331 331 332 332 332 333 332 332 332 332 332 331 331 330 330 329 329 328 327 326 325 323
311 312 312 313 313 314 314 315 315 316 316 317 317 318 318 319 319 319 319 320 320 319 319 319 320 320 320 320 320 320 320 321 321 322 322 322 322 322 322 322 322 322 322 322 322 322 322 322 323 323 323 324 324 325 325 326 327 327 328 329 329 330 331 332 332 333 333 333 334 334 334 333 333 333 333 332 332 331 331 330 329 328 328 327 326 325
312 312 313 313 314 314 315 315 316 316 317 317 318 318 319 319 319 319 319 320 320 319 319 320 320 320 320 320 320 321 321 321 322 322 323 323 322 322 322 322 322 322 323 323 323 323 323 323 323 324 324 325 325 326 326 327 327 328 329 330 331 331 332 333 333 334 334 335 335 335 335 334 334 334 333 333 332 332 331 331 330 330 329 328 327 326
312 313 313 314 314 315 315 316 316 317 317 318 318 319 319 319 319 320 320 320 320 320 320 320 320 320 321 321 321 321 322 322 322 323 323 323 323 323 323 323 323 323 323 323 323 323 323 323 324 325 325 325 326 326 327 328 328 329 330 331 332 332 333 334 334 335 335 336 336 336 336 335 335 334 334 334 333 333 332 332 331 331 330 329 328 328
313 313 314 314 315 315 316 316 317 317 318 318 319 319 319 320 320 320 320 320 320 320 320 320 321 321 321 321 322 322 322 322 323 323 324 324 323 323 323 323 323 323 323 324 324 324 324 324 325 325 326 326 327 327 328 328 329 330 331 332 332 333 334 335 336 336 336 337 337 337 336 336 336 335 335 334 334 334 334 333 333 332 331 331 330 329
313 314 314 315 315 316 316 317 317 318 318 319 319 319 320 320 320 320 320 320 320 320 320 321 321 321 322 322 322 322 323 323 323 324 324 324 324 323 324 324 324 324 324 324 325 325 325 325 326 326 326 327 328 328 328 329 330 331 332 333 334 334 335 336 336 337 337 338 337 337 337 337 337 336 336 336 335 335 335 334 334 333 332 332 331 330
314 314 315 315 316 316 317 317 318 318 319 319 319 320 320 320 320 320 320 320 320 321 321 321 322 322 322 323 323 323 323 323 324 324 324 324 324 324 324 324 324 325 325 325 326 326 326 326 327 327 327 328 328 329 329 330 331 332 333 334 335 335 336 337 337 338 338 338 338 338 338 338 338 337 337 337 337 336 336 335 335 334 333 333 332 331
314 315 315 316 316 317 317 318 318 319 319 319 320 320 320 320 321 321 321 321 321 321 322 322 322 323 323 323 323 324 324 324 324 325 325 325 325 325 325 325 325 325 326 326 326 327 327 327 327 328 328 328 329 329 330 331 332 333 333 334 335 336 337 338 338 338 338 339 339 339 339 339 339 339 339 339 338 338 337 337 336 336 335 334 334 333
315 315 316 317 317 318 318 319 319 319 320 320 320 321 321 321 321 321 321 321 322 322 322 323 323 323 324 324 324 324 324 325 325 325 325 325 325 325 326 326 326 326 326 327 327 327 327 328 328 328 329 329 329 330 331 332 332 333 334 335 336 337 338 338 338 339 339 339 340 340 340 340 340 341 340 340 340 340 339 339 338 338 337 337 336 335
316 316 317 317 318 318 319 319 319 320 320 320 321 321 321 321 322 322 322 322 322 323 323 323 324 324 325 325 325 325 325 325 325 326 326 326 326 326 326 326 326 327 327 327 328 328 328 328 329 329 329 330 330 331 331 332 333 334 335 336 337 338 338 338 339 339 340 340 341 341 341 342 342 342 342 342 342 342 341 341 340 340 339 338 337 337
316 317 318 318 319 319 319 320 320 320 321 321 321 322 322 322 322 322 323 323 323 323 324 324 324 325 325 326 326 326 326 326 326 326 326 326 326 327 327 327 327 327 328 328 328 328 329 329 329 329 330 330 331 331 332 333 334 335 336 336 337 338 338 339 339 340 340 341 342 342 343 344 344 344 344 344 344 343 343 342 342 341 340 339 338 337
317 318 319 319 319 320 320 320 321 321 321 322 322 322 322 323 323 323 323 324 324 324 324 325 325 325 326 326 326 326 326 326 326 326 326 326 327 327 327 328 328 328 328 329 329 329 330 330 330 330 331 331 331 332 333 333 334 335 336 337 337 338 339 339 340 340 341 342 343 343 344 345 345 346 346 345 345 345 344 343 342 341 340 339 338 337
318 319 319 320 320 320 320 321 321 321 322 322 322 323 323 323 324 324 324 324 324 325 325 325 325 326 326 326 327 327 327 327 327 326 327 327 327 328 328 328 328 329 329 329 330 330 330 330 331 331 331 332 332 333 333 334 335 335 336 337 337 338 339 340 340 341 342 343 344 345 345 346 347 347 347 347 346 346 345 344 343 342 341 340 339 338
319 320 320 320 320 320 321 321 322 322 323 323 323 323 324 324 324 325 325 325 325 325 326 326 326 326 327 327 327 327 327 327 327 327 327 328 328 328 328 329 329 329 330 330 330 330 331 331 331 331 332 332 333 333 334 334 335 335 336 337 338 339 339 340 341 342 343 344 345 346 346 347 347 348 348 348 347 347 346 345 344 343 342 341 341 340
320 320 320 320 321 321 322 322 322 323 323 324 324 324 325 325 325 325 325 326 326 326 326 326 327 327 327 327 328 328 328 328 328 328 328 328 328 329 329 329 329 330 330 330 331 331 331 331 332 332 332 333 333 333 334 334 335 335 336 337 338 339 340 341 342 343 344 345 345 346 347 348 348 348 349 349 348 348 347 347 346 345 345 344 343 342
320 320 321 321 321 322 322 323 323 324 324 325 325 325 325 326 326 326 326 326 326 327 327 327 327 327 327 328 328 328 329 329 329 329 329 329 329 329 329 330 330 330 331 331 331 331 331 332 332 332 332 333 333 333 334 334 335 335 336 337 338 339 340 342 343 344 345 346 346 347 348 348 349 349 349 349 349 349 349 348 348 347 347 346 346 345
321 321 321 322 322 323 323 324 324 325 325 326 326 326 326 326 327 327 327 327 327 327 327 327 327 327 328 328 329 329 329 329 329 329 329 329 329 330 330 330 330 331 331 331 331 332 332 332 332 332 332 333 333 333 334 334 335 335 336 337 338 339 341 342 343 345 346 346 347 348 348 349 349 349 349 350 350 350 350 349 349 349 348 347 347 346
321 322 322 323 323 324 325 325 326 326 326 327 327 327 327 327 327 328 328 328 328 328 328 328 328 328 328 329 329 329 329 329 329 329 329 330 329 330 330 330 331 331 331 331 332 332 332 332 332 332 332 333 333 333 334 334 335 335 336 337 338 339 341 342 344 345 346 347 348 349 349 349 350 350 350 350 350 350 350 350 350 349 349 348 347 347
322 323 323 324 325 325 326 326 327 327 327 328 328 328 328 328 328 328 328 329 328 328 328 328 328 329 329 329 330 330 330 330 330 330 330 330 330 330 330 330 331 331 331 332 332 332 332 332 332 332 332 333 333 333 334 334 335 335 336 337 338 339 340 342 344 345 347 348 349 349 350 350 350 350 351 351 351 350 350 350 350 349 349 348 348 347
324 324 325 326 326 327 327 328 328 328 328 329 329 329 329 329 329 329 329 329 329 329 329 329 329 329 330 330 330 330 331 331 331 331 330 330 330 330 330 331 331 331 332 332 332 332 332 332 332 332 332 333 332 333 333 334 335 335 336 337 338 339 341 342 344 345 347 348 349 349 350 350 350 351 351 351 351 351 350 350 350 349 349 348 347 347
325 326 327 327 328 328 328 329 329 329 330 330 330 330 330 330 330 330 330 330 330 330 330 330 330 330 330 330 331 331 331 331 331 331 331 331 331 331 331 331 331 332 332 332 332 332 332 332 332 332 332 332 332 332 333 334 334 335 336 337 338 339 340 342 343 345 346 347 349 349 350 350 351 351 351 351 351 351 351 351 350 349 348 347 347 346
327 327 328 329 329 329 330 330 330 331 331 331 331 331 331 331 331 331 331 331 330 330 330 331 331 331 331 331 331 331 331 332 332 332 332 331 331 331 331 332 332 332 332 332 332 332 332 332 332 332 332 332 332 332 333 333 334 335 336 337 338 339 340 341 343 344 346 347 348 349 350 350 351 351 351 351 351 351 351 351 350 349 348 347 346 346
328 329 330 330 331 331 331 331 331 332 332 332 332 332 332 332 332 332 332 331 331 331 331 331 332 332 332 332 332 332 332 332 332 332 332 332 332 332 332 332 332 332 332 332 332 332 332 332 332 332 332 332 332 332 332 333 334 335 336 337 338 339 340 341 342 344 345 347 348 349 349 350 350 351 351 351 351 351 351 351 351 350 349 348 346 345
330 330 331 331 332 332 332 333 333 333 333 333 333 333 333 333 333 332 332 332 332 332 332 332 332 332 333 333 333 333 333 333 333 333 333 333 333 333 333 332 333 333 333 333 333 332 332 332 332 332 331 332 332 332 332 333 334 335 336 337 338 339 340 341 342 343 344 346 347 348 349 350 350 351 351 351 351 351 352 352 351 351 350 348 347 346
Height
10527 10522 10518 10514 10509 10504 10498 10494 10490 10485 10479 10472 10465 10460 10455 10449 10444 10439 10434 10428 10422 10416 10410 10404 10397 10390 10385 10379 10373 10367 10360 10354 10348 10342 10335 10329 10322 10316 10310 10304 10298 10292 10286 10280 10274 10268 10262 10255 10248 10242 10236 10230 10225 10219 10214 10208 10202 10197 10190 10185 10180 10175 10170 10166 10162 10157 10153 10148 10144 10140 10135 10132 10129 10125 10121 10117 10114 10110 10107 10104 10101 10098 10095 10092 10090 10087
10520 10515 10510 10507 10502 10497 10492 10486 10482 10477 10472 10465 10459 10453 10447 10442 10436 10431 10425 10420 10414 10409 10402 10396 10389 10383 10376 10370 10365 10360 10353 10347 10340 10334 10327 10321 10315 10309 10302 10296 10290 10284 10279 10272 10267 10260 10254 10247 10241 10234 10229 10223 10217 10212 10206 10200 10195 10189 10184 10178 10173 10169 10164 10159 10155 10150 10146 10142 10139 10134 10130 10127 10123 10119 10115 10112 10109 10105 10102 10099 10096 10092 10090 10087 10085 10083
10514 10509 10504 10499 10495 10490 10485 10480 10474 10469 10464 10458 10452 10447 10440 10435 10429 10424 10418 10412 10407 10400 10394 10388 10382 10375 10369 10362 10357 10352 10346 10339 10332 10326 10320 10314 10307 10301 10295 10289 10283 10277 10271 10265 10259 10252 10246 10240 10234 10227 10221 10215 10210 10204 10199 10193 10187 10182 10177 10172 10167 10162 10157 10153 10149 10145 10140 10137 10133 10129 10125 10121 10117 10114 10110 10107 10104 10100 10097 10094 10091 10088 10085 10082 10080 10078
10508 10504 10497 10492 10487 10483 10478 10473 10467 10462 10456 10451 10446 10440 10435 10429 10422 10416 10410 10405 10399 10393 10387 10380 10374 10367 10360 10354 10349 10344 10339 10332 10325 10319 10312 10305 10300 10294 10287 10281 10275 10269 10263 10257 10250 10244 10238 10232 10226 10220 10214 10209 10203 10197 10192 10186 10180 10175 10170 10165 10160 10156 10152 10147 10143 10139 10135 10131 10127 10124 10120 10116 10112 10109 10105 10102 10099 10095 10092 10089 10086 10083 10080 10077 10075 10073
10502 10498 10493 10487 10482 10476 10470 10465 10459 10454 10448 10442 10438 10433 10429 10422 10415 10409 10402 10396 10390 10384 10379 10372 10367 10360 10354 10347 10341 10336 10331 10325 10319 10312 10305 10298 10292 10285 10279 10274 10267 10262 10255 10249 10243 10237 10230 10224 10219 10212 10207 10201 10195 10190 10185 10179 10174 10169 10164 10159 10155 10150 10146 10142 10137 10134 10130 10126 10122 10119 10115 10111 10107 10104 10100 10097 10094 10090 10087 10084 10082 10079 10075 10073 10070 10068
10495 10492 10487 10482 10477 10470 10464 10459 10452 10447 10440 10434 10428 10423 10419 10414 10409 10402 10396 10389 10382 10376 10370 10364 10358 10353 10347 10341 10335 10329 10324 10319 10312 10305 10297 10290 10284 10277 10271 10265 10259 10254 10247 10241 10235 10229 10223 10217 10211 10205 10200 10194 10189 10183 10178 10172 10167 10162 10158 10154 10149 10145 10140 10137 10132 10129 10125 10121 10117 10114 10110 10107 10103 10099 10096 10093 10089 10086 10083 10080 10077 10074 10071 10069 10066 10064
10489 10484 10480 10475 10470 10464 10457 10452 10447 10441 10435 10427 10420 10413 10408 10403 10399 10394 10389 10383 10377 10370 10362 10355 10349 10343 10339 10334 10329 10322 10317 10310 10304 10297 10290 10282 10275 10269 10263 10257 10251 10245 10239 10234 10227 10221 10215 10210 10204 10199 10193 10187 10182 10177 10172 10166 10162 10157 10152 10148 10144 10139 10135 10132 10128 10124 10120 10116 10112 10109 10105 10102 10099 10095 10092 10089 10085 10082 10079 10076 10073 10070 10067 10065 10062 10060
10484 10478 10472 10467 10462 10455 10449 10443 10438 10434 10429 10423 10415 10407 10400 10393 10387 10382 10379 10374 10370 10364 10357 10349 10340 10332 10327 10322 10319 10315 10309 10303 10296 10289 10282 10275 10267 10260 10254 10249 10243 10238 10232 10226 10220 10214 10209 10203 10197 10192 10187 10181 10176 10170 10165 10160 10156 10151 10147 10142 10139 10134 10130 10127 10123 10119 10115 10112 10108 10104 10100 10097 10094 10090 10087 10084 10081 10078 10075 10072 10069 10066 10064 10061 10059 10056
10478 10472 10466 10460 10454 10449 10442 10435 10429 10424 10420 10415 10410 10403 10397 10389 10381 10374 10367 10362 10359 10355 10350 10343 10335 10325 10317 10310 10307 10304 10300 10295 10288 10281 10275 10267 10260 10253 10246 10241 10235 10230 10225 10219 10214 10208 10202 10197 10191 10186 10180 10175 10170 10165 10160 10155 10150 10146 10142 10137 10134 10130 10126 10122 10118 10114 10110 10107 10104 10100 10096 10093 10090 10087 10083 10080 10077 10074 10071 10068 10065 10062 10060 10057 10054 10052
10470 10465 10459 10453 10447 10442 10437 10430 10424 10417 10412 10407 10402 10396 10392 10387 10380 10372 10362 10354 10347 10343 10339 10334 10327 10320 10312 10304 10296 10292 10289 10285 10279 10272 10266 10260 10253 10246 10239 10234 10229 10224 10219 10212 10207 10202 10196 10190 10185 10180 10175 10169 10164 10159 10154 10150 10145 10140 10136 10132 10129 10125 10121 10117 10113 10109 10105 10102 10099 10095 10092 10089 10085 10082 10079 10076 10073 10070 10067 10064 10062 10059 10056 10054 10051 10049
10463 10457 10452 10445 10439 10434 10429 10423 10417 10411 10405 10400 10394 10387 10381 10377 10374 10368 10360 10350 10342 10335 10329 10323 10317 10312 10307 10300 10292 10285 10279 10275 10269 10264 10257 10251 10245 10238 10232 10227 10222 10217 10212 10206 10200 10195 10190 10185 10179 10174 10169 10164 10159 10154 10149 10145 10140 10135 10131 10127 10124 10120 10116 10112 10109 10105 10101 10098 10094 10091 10088 10085 10082 10079 10075 10072 10069 10066 10064 10060 10058 10055 10052 10050 10047 10045
10456 10450 10445 10439 10433 10427 10421 10415 10409 10402 10397 10392 10385 10379 10372 10366 10362 10358 10352 10345 10337 10330 10324 10316 10309 10303 10299 10294 10287 10280 10273 10267 10262 10256 10250 10244 10237 10230 10224 10218 10214 10209 10204 10199 10194 10189 10184 10179 10174 10169 10163 10158 10154 10149 10144 10139 10135 10130 10127 10122 10119 10115 10112 10108 10104 10100 10097 10094 10090 10087 10084 10081 10078 10075 10072 10068 10065 10062 10059 10057 10054 10052 10049 10046 10044 10042
10449 10444 10437 10432 10426 10420 10415 10408 10402 10395 10389 10384 10379 10373 10366 10360 10355 10350 10345 10338 10331 10325 10319 10312 10304 10296 10290 10285 10280 10274 10267 10260 10255 10250 10244 10237 10230 10224 10217 10210 10205 10200 10196 10191 10186 10181 10177 10172 10167 10162 10157 10152 10148 10144 10139 10134 10130 10126 10122 10118 10115 10111 10108 10104 10100 10097 10093 10090 10087 10084 10080 10077 10074 10071 10068 10065 10062 10059 10056 10053 10050 10048 10045 10043 10040 10038
10442 10436 10430 10424 10418 10413 10407 10402 10395 10388 10382 10377 10372 10367 10362 10355 10350 10344 10339 10332 10324 10318 10312 10305 10297 10289 10282 10278 10274 10267 10260 10253 10247 10242 10236 10230 10224 10217 10210 10204 10198 10194 10189 10184 10179 10174 10170 10165 10160 10156 10152 10147 10142 10138 10134 10129 10125 10121 10117 10114 10110 10107 10104 10100 10097 10093 10089 10086 10083 10080 10077 10074 10071 10068 10064 10061 10058 10055 10052 10050 10047 10044 10042 10040 10037 10035
10435 10429 10424 10417 10411 10405 10400 10395 10389 10382 10375 10370 10365 10360 10355 10349 10343 10337 10332 10325 10319 10312 10305 10298 10290 10281 10273 10268 10265 10261 10255 10247 10239 10234 10229 10222 10217 10210 10204 10197 10191 10186 10182 10177 10172 10167 10163 10159 10154 10150 10145 10141 10137 10132 10129 10124 10120 10117 10114 10110 10106 10103 10100 10096 10093 10089 10086 10082 10079 10077 10074 10071 10068 10065 10061 10058 10055 10052 10049 10047 10044 10041 10039 10037 10034 10032
10429 10424 10417 10411 10405 10399 10393 10388 10383 10377 10370 10364 10358 10354 10349 10343 10337 10331 10325 10319 10312 10306 10300 10293 10285 10276 10267 10260 10255 10251 10247 10240 10233 10227 10222 10216 10210 10204 10198 10191 10185 10180 10175 10171 10166 10162 10157 10152 10148 10144 10140 10135 10131 10127 10124 10120 10116 10112 10109 10105 10102 10099 10096 10093 10090 10086 10083 10080 10076 10074 10070 10068 10065 10062 10059 10055 10052 10049 10047 10044 10041 10039 10036 10034 10032 10029
10423 10418 10412 10405 10399 10392 10386 10380 10375 10369 10363 10357 10351 10345 10340 10335 10330 10325 10319 10313 10307 10300 10294 10287 10280 10272 10264 10255 10248 10243 10239 10234 10227 10220 10215 10209 10204 10197 10192 10185 10179 10174 10169 10165 10160 10156 10151 10147 10142 10139 10134 10130 10127 10122 10119 10115 10112 10109 10105 10102 10099 10095 10093 10090 10087 10084 10080 10077 10074 10070 10068 10065 10062 10059 10056 10053 10050 10047 10044 10042 10039 10037 10034 10032 10029 10027
10417 10412 10407 10400 10393 10385 10379 10374 10369 10362 10356 10349 10343 10337 10331 10326 10321 10316 10311 10305 10300 10294 10288 10281 10274 10267 10260 10252 10244 10237 10233 10227 10221 10215 10209 10203 10197 10191 10185 10180 10174 10169 10164 10160 10155 10150 10145 10141 10137 10134 10129 10125 10122 10118 10115 10111 10108 10105 10102 10099 10095 10092 10090 10087 10084 10080 10077 10074 10071 10068 10065 10062 10059 10057 10054 10050 10047 10045 10042 10039 10037 10034 10032 10029 10027 10025
10411 10405 10401 10395 10388 10380 10372 10366 10361 10356 10350 10344 10337 10331 10325 10319 10313 10308 10302 10297 10292 10286 10280 10274 10267 10260 10254 10247 10239 10232 10227 10221 10215 10209 10203 10197 10191 10185 10180 10174 10169 10164 10159 10155 10150 10145 10140 10136 10132 10129 10125 10122 10118 10114 10110 10107 10104 10101 10098 10095 10092 10089 10087 10084 10080 10078 10075 10072 10069 10065 10062 10060 10057 10054 10051 10048 10045 10042 10039 10037 10034 10032 10029 10027 10025 10022
10405 10399 10394 10389 10384 10376 10367 10360 10354 10349 10344 10337 10331 10325 10319 10312 10307 10300 10295 10290 10284 10279 10273 10267 10260 10254 10247 10240 10233 10226 10220 10215 10209 10202 10197 10191 10185 10180 10174 10169 10164 10159 10154 10150 10146 10141 10136 10132 10128 10125 10121 10118 10114 10110 10107 10104 10101 10098 10095 10092 10089 10087 10084 10080 10078 10075 10072 10069 10066 10063 10060 10057 10054 10051 10049 10045 10042 10040 10037 10034 10032 10029 10027 10025 10022 10020
10399 10392 10387 10382 10377 10371 10363 10355 10348 10342 10336 10331 10325 10319 10312 10305 10299 10292 10286 10281 10276 10270 10265 10260 10254 10247 10240 10234 10227 10220 10215 10209 10203 10197 10190 10185 10180 10175 10170 10164 10159 10154 10149 10145 10141 10137 10132 10128 10124 10120 10117 10114 10110 10107 10104 10101 10098 10095 10092 10089 10087 10084 10081 10078 10075 10072 10069 10066 10064 10060 10057 10055 10052 10049 10046 10043 10040 10037 10035 10032 10030 10027 10025 10022 10020 10017
10394 10387 10381 10375 10370 10365 10359 10351 10344 10337 10330 10325 10319 10313 10307 10300 10294 10287 10280 10274 10269 10264 10258 10253 10247 10241 10235 10229 10223 10216 10210 10204 10199 10192 10186 10180 10174 10169 10165 10160 10154 10149 10145 10141 10137 10133 10129 10124 10120 10117 10114 10111 10107 10104 10101 10099 10095 10092 10089 10087 10084 10081 10078 10075 10072 10069 10067 10064 10060 10058 10055 10052 10049 10046 10044 10040 10038 10035 10033 10030 10027 10025 10022 10020 10017 10015
10387 10381 10375 10370 10364 10359 10352 10345 10338 10331 10324 10318 10312 10306 10301 10295 10290 10284 10277 10270 10264 10259 10253 10247 10242 10235 10230 10224 10218 10212 10205 10199 10193 10187 10181 10175 10170 10165 10160 10155 10150 10145 10140 10137 10133 10129 10125 10120 10117 10114 10110 10107 10105 10102 10099 10095 10093 10090 10087 10084 10081 10079 10075 10072 10070 10067 10064 10060 10058 10055 10052 10049 10047 10044 10041 10039 10035 10033 10030 10028 10025 10023 10020 10018 10015 10013
10381 10375 10369 10364 10358 10352 10346 10339 10333 10326 10319 10312 10305 10299 10294 10288 10283 10277 10271 10265 10259 10253 10247 10241 10235 10229 10223 10217 10212 10205 10200 10194 10188 10182 10176 10170 10165 10160 10156 10151 10146 10141 10137 10133 10129 10125 10122 10117 10114 10110 10107 10104 10102 10099 10096 10093 10090 10087 10084 10082 10079 10076 10073 10070 10067 10064 10061 10058 10055 10052 10049 10047 10044 10042 10039 10036 10034 10031 10029 10026 10024 10021 10019 10016 10014 10011
10375 10370 10364 10358 10352 10346 10340 10333 10327 10320 10314 10307 10300 10294 10287 10281 10275 10269 10264 10257 10252 10245 10239 10234 10228 10222 10216 10210 10205 10199 10194 10188 10182 10176 10170 10165 10160 10155 10152 10147 10142 10137 10133 10129 10125 10122 10119 10115 10111 10107 10104 10102 10099 10096 10094 10090 10088 10085 10082 10079 10076 10074 10070 10068 10065 10062 10059 10055 10052 10050 10047 10044 10042 10039 10036 10034 10031 10029 10026 10024 10022 10019 10017 10014 10012 10010
10370 10364 10359 10352 10346 10340 10334 10327 10320 10314 10308 10302 10295 10288 10281 10275 10268 10262 10255 10249 10244 10237 10231 10225 10220 10214 10209 10204 10198 10192 10187 10181 10176 10170 10165 10160 10155 10150 10147 10143 10139 10134 10129 10125 10122 10119 10115 10112 10109 10105 10102 10099 10096 10094 10090 10088 10085 10082 10080 10077 10074 10071 10068 10065 10062 10059 10056 10054 10050 10047 10044 10042 10039 10037 10034 10032 10029 10027 10024 10022 10019 10017 10015 10012 10010 10008
10363 10357 10352 10345 10339 10333 10327 10320 10314 10308 10302 10295 10289 10282 10275 10269 10262 10254 10247 10242 10236 10230 10224 10219 10213 10207 10202 10196 10191 10185 10180 10175 10170 10165 10160 10155 10151 10146 10142 10139 10135 10130 10126 10122 10119 10116 10113 10109 10106 10102 10099 10096 10094 10090 10088 10085 10082 10080 10077 10074 10072 10069 10065 10063 10060 10057 10054 10051 10048 10045 10042 10039 10037 10034 10032 10029 10027 10024 10022 10019 10017 10015 10012 10010 10009 10006
10358 10352 10345 10340 10334 10327 10320 10314 10307 10301 10295 10289 10282 10275 10269 10262 10256 10249 10241 10235 10230 10224 10217 10212 10207 10201 10195 10190 10185 10180 10175 10170 10165 10160 10156 10151 10147 10142 10139 10135 10131 10128 10124 10120 10116 10113 10110 10107 10104 10100 10097 10094 10090 10088 10085 10082 10080 10077 10074 10072 10069 10066 10063 10060 10057 10055 10052 10049 10046 10043 10040 10037 10034 10032 10029 10027 10024 10022 10019 10017 10015 10012 10010 10009 10006 10004
10352 10346 10340 10334 10327 10321 10314 10308 10301 10295 10289 10282 10276 10269 10262 10256 10250 10244 10237 10230 10224 10219 10212 10206 10200 10195 10190 10185 10180 10175 10170 10165 10161 10156 10152 10147 10142 10139 10135 10131 10128 10125 10122 10118 10114 10110 10107 10104 10101 10098 10094 10091 10089 10085 10082 10080 10077 10075 10072 10069 10067 10064 10061 10058 10055 10052 10050 10047 10044 10041 10038 10035 10032 10030 10027 10024 10022 10020 10017 10015 10013 10010 10008 10006 10004 10002
10344 10339 10332 10326 10320 10314 10307 10301 10295 10289 10282 10276 10270 10264 10257 10250 10244 10238 10232 10225 10219 10214 10207 10201 10195 10190 10185 10179 10174 10169 10164 10160 10157 10152 10149 10144 10139 10135 10131 10128 10124 10122 10119 10116 10112 10109 10105 10102 10099 10095 10092 10089 10086 10083 10080 10078 10075 10072 10070 10067 10064 10062 10059 10056 10053 10050 10047 10045 10042 10039 10036 10034 10030 10028 10025 10022 10020 10017 10015 10013 10010 10009 10006 10004 10002 10000
10337 10332 10326 10320 10314 10307 10301 10295 10289 10282 10276 10270 10264 10258 10251 10245 10239 10232 10227 10220 10214 10209 10202 10197 10191 10185 10180 10175 10169 10164 10160 10156 10152 10149 10145 10140 10136 10132 10129 10125 10121 10118 10115 10113 10110 10107 10103 10099 10097 10094 10090 10087 10084 10082 10079 10075 10073 10070 10067 10065 10062 10059 10057 10054 10051 10049 10045 10043 10040 10037 10034 10032 10029 10026 10024 10020 10018 10015 10013 10010 10009 10006 10004 10002 10000 9999
10332 10326 10320 10314 10308 10302 10295 10289 10283 10277 10270 10264 10258 10252 10245 10240 10234 10227 10221 10215 10209 10204 10197 10192 10187 10181 10176 10171 10165 10160 10156 10152 10149 10145 10142 10137 10133 10129 10125 10122 10119 10115 10112 10109 10107 10104 10101 10097 10094 10091 10089 10085 10083 10080 10077 10074 10071 10069 10066 10063 10060 10058 10055 10052 10050 10047 10044 10041 10039 10035 10033 10030 10027 10024 10022 10019 10016 10014 10011 10009 10007 10004 10002 10000 9998 9996
10326 10320 10315 10309 10302 10296 10290 10284 10277 10271 10265 10259 10252 10246 10240 10234 10228 10222 10216 10210 10204 10199 10193 10187 10182 10177 10172 10167 10162 10157 10153 10149 10145 10142 10138 10134 10130 10126 10123 10119 10116 10113 10109 10106 10104 10101 10099 10095 10092 10089 10086 10084 10081 10078 10075 10072 10069 10067 10064 10062 10059 10056 10054 10050 10048 10045 10042 10040 10037 10034 10031 10029 10025 10023 10020 10017 10015 10012 10010 10007 10005 10003 10000 9999 9997 9995
10321 10315 10309 10303 10297 10290 10284 10278 10272 10265 10259 10253 10247 10241 10235 10229 10222 10217 10210 10204 10199 10193 10188 10182 10178 10173 10168 10163 10158 10153 10149 10145 10142 10139 10135 10131 10127 10124 10120 10117 10114 10110 10107 10104 10101 10099 10095 10093 10090 10087 10084 10081 10079 10076 10074 10070 10068 10065 10062 10060 10057 10054 10052 10049 10046 10044 10041 10038 10035 10033 10030 10027 10024 10022 10019 10016 10013 10010 10008 10005 10004 10001 9999 9997 9995 9993
10315 10309 10303 10297 10291 10284 10278 10272 10265 10259 10253 10247 10241 10235 10229 10224 10217 10211 10205 10199 10194 10188 10182 10178 10173 10169 10164 10159 10154 10150 10145 10142 10138 10135 10132 10128 10125 10121 10117 10114 10112 10109 10105 10102 10099 10097 10094 10090 10088 10085 10082 10079 10077 10074 10071 10069 10066 10063 10060 10058 10055 10053 10050 10047 10045 10042 10039 10037 10034 10031 10029 10025 10023 10020 10017 10014 10012 10009 10007 10004 10002 10000 9997 9995 9994 9992
10310 10304 10297 10291 10285 10279 10272 10265 10259 10253 10247 10240 10235 10230 10224 10218 10212 10205 10200 10194 10188 10183 10177 10173 10169 10164 10160 10155 10151 10146 10142 10138 10135 10132 10128 10125 10122 10119 10115 10112 10109 10106 10104 10100 10097 10095 10092 10089 10086 10084 10080 10078 10075 10072 10069 10067 10064 10062 10059 10057 10054 10052 10049 10046 10044 10041 10038 10035 10033 10030 10027 10024 10021 10019 10015 10013 10010 10008 10005 10002 10000 9998 9995 9994 9992 9990
10305 10299 10292 10285 10279 10272 10266 10259 10253 10247 10241 10235 10229 10224 10218 10212 10206 10200 10194 10189 10183 10178 10173 10169 10164 10160 10156 10152 10147 10143 10139 10135 10131 10128 10125 10122 10119 10115 10113 10109 10107 10104 10101 10099 10095 10093 10090 10087 10084 10082 10079 10076 10074 10070 10068 10065 10062 10060 10057 10055 10052 10050 10047 10045 10042 10040 10037 10034 10031 10029 10025 10023 10020 10017 10014 10012 10009 10007 10004 10002 9999 9997 9994 9992 9990 9988
10300 10293 10286 10279 10272 10266 10260 10254 10247 10242 10235 10230 10224 10218 10212 10207 10200 10195 10189 10184 10178 10173 10169 10164 10160 10156 10152 10149 10145 10140 10137 10132 10129 10125 10122 10119 10116 10113 10110 10107 10104 10102 10099 10097 10094 10091 10089 10085 10083 10080 10077 10075 10072 10069 10067 10064 10061 10059 10056 10054 10052 10049 10047 10044 10041 10038 10035 10033 10030 10027 10024 10022 10019 10016 10013 10010 10008 10005 10003 10000 9999 9996 9994 9992 9989 9987
10295 10288 10281 10274 10267 10261 10254 10248 10242 10236 10230 10225 10219 10214 10207 10202 10196 10190 10184 10179 10174 10169 10164 10160 10156 10152 10149 10145 10142 10139 10134 10130 10127 10123 10120 10117 10114 10111 10108 10105 10102 10099 10097 10094 10092 10089 10087 10084 10081 10079 10076 10073 10070 10067 10065 10062 10060 10057 10055 10052 10050 10048 10045 10042 10040 10037 10034 10032 10029 10026 10023 10020 10017 10015 10012 10010 10007 10005 10002 10000 9998 9995 9994 9991 9989 9987
10289 10282 10275 10269 10262 10256 10250 10244 10238 10232 10226 10220 10214 10209 10203 10197 10192 10185 10180 10175 10170 10165 10160 10156 10152 10149 10145 10142 10139 10135 10132 10129 10125 10121 10118 10115 10112 10109 10106 10104 10100 10098 10095 10092 10090 10087 10085 10082 10080 10077 10074 10072 10069 10066 10064 10061 10059 10056 10054 10051 10049 10046 10044 10041 10039 10035 10033 10030 10027 10025 10022 10019 10017 10014 10011 10009 10006 10004 10001 9999 9997 9995 9992 9990 9989 9987
10284 10277 10270 10264 10257 10251 10245 10239 10234 10228 10222 10216 10210 10204 10199 10193 10187 10182 10177 10172 10167 10162 10157 10153 10149 10145 10141 10138 10135 10132 10129 10125 10122 10119 10115 10112 10110 10107 10104 10101 10099 10096 10094 10090 10088 10085 10083 10080 10078 10075 10073 10070 10068 10065 10062 10060 10057 10055 10052 10050 10048 10045 10043 10040 10037 10035 10032 10029 10026 10024 10021 10018 10015 10013 10010 10007 10005 10002 10000 9998 9995 9994 9991 9989 9987 9985
10279 10272 10266 10259 10253 10247 10241 10235 10229 10223 10217 10212 10205 10200 10194 10189 10184 10178 10173 10168 10164 10159 10155 10150 10147 10143 10139 10135 10132 10129 10125 10122 10119 10116 10113 10110 10107 10105 10102 10099 10097 10094 10092 10089 10087 10084 10082 10079 10077 10074 10072 10069 10067 10064 10062 10059 10056 10054 10052 10049 10047 10044 10042 10039 10037 10034 10031 10028 10025 10022 10020 10017 10014 10012 10009 10007 10004 10002 9999 9997 9994 9992 9990 9987 9985 9984
10275 10268 10262 10255 10249 10244 10237 10232 10225 10219 10213 10207 10201 10195 10190 10185 10180 10175 10170 10165 10160 10156 10152 10148 10144 10140 10137 10133 10130 10126 10123 10120 10117 10114 10111 10108 10105 10103 10100 10097 10095 10092 10090 10088 10085 10082 10080 10078 10075 10073 10070 10068 10065 10063 10060 10058 10055 10053 10050 10049 10046 10044 10040 10038 10035 10033 10030 10027 10024 10022 10019 10016 10014 10010 10008 10005 10003 10000 9998 9996 9994 9991 9989 9987 9984 9982
10271 10264 10258 10252 10245 10239 10234 10227 10221 10215 10209 10203 10197 10192 10186 10181 10176 10171 10166 10162 10157 10153 10149 10145 10142 10138 10135 10131 10128 10125 10121 10118 10115 10112 10109 10106 10104 10101 10099 10096 10094 10091 10089 10086 10084 10082 10079 10077 10074 10072 10069 10067 10065 10062 10060 10057 10055 10052 10050 10047 10045 10042 10040 10037 10035 10032 10029 10027 10024 10020 10018 10015 10012 10010 10007 10005 10002 10000 9997 9995 9992 9990 9988 9986 9984 9982
10268 10260 10254 10248 10242 10235 10229 10222 10217 10210 10205 10199 10194 10188 10182 10177 10172 10168 10163 10159 10154 10150 10146 10142 10139 10135 10132 10129 10126 10123 10120 10117 10113 10110 10107 10104 10102 10099 10097 10094 10092 10089 10087 10085 10082 10080 10078 10075 10073 10070 10068 10066 10064 10061 10059 10056 10054 10052 10049 10047 10044 10042 10039 10037 10034 10032 10029 10026 10023 10020 10017 10015 10012 10009 10007 10004 10001 9999 9996 9994 9992 9989 9987 9985 9983 9980
10263 10256 10250 10243 10237 10230 10225 10219 10212 10207 10200 10195 10190 10184 10179 10174 10169 10165 10160 10156 10152 10148 10144 10140 10136 10133 10129 10126 10124 10121 10118 10115 10112 10109 10105 10103 10100 10097 10095 10092 10090 10088 10085 10083 10080 10079 10076 10074 10072 10069 10067 10065 10062 10060 10058 10055 10053 10050 10048 10045 10043 10040 10039 10036 10034 10031 10029 10026 10023 10020 10017 10015 10012 10009 10006 10004 10001 9998 9995 9993 9991 9989 9986 9984 9982 9980
10257 10251 10245 10239 10233 10227 10220 10214 10209 10202 10197 10191 10186 10180 10175 10171 10166 10162 10157 10154 10150 10145 10142 10138 10134 10130 10127 10124 10121 10119 10115 10113 10110 10107 10104 10101 10099 10096 10094 10091 10089 10087 10084 10082 10079 10077 10075 10072 10070 10068 10066 10064 10061 10059 10057 10054 10052 10050 10047 10045 10042 10040 10037 10035 10033 10030 10028 10025 10023 10020 10017 10015 10012 10009 10007 10004 10001 9999 9996 9993 9990 9988 9985 9984 9981 9979
10254 10247 10240 10234 10229 10222 10216 10210 10204 10199 10193 10188 10182 10177 10172 10168 10164 10159 10155 10151 10147 10144 10139 10135 10132 10129 10125 10122 10119 10116 10114 10111 10109 10105 10103 10100 10097 10095 10092 10090 10087 10085 10082 10080 10078 10076 10074 10071 10069 10067 10065 10062 10060 10058 10055 10053 10051 10049 10046 10044 10041 10039 10037 10034 10032 10029 10027 10025 10022 10020 10017 10015 10012 10009 10007 10004 10002 9999 9996 9994 9991 9988 9985 9983 9980 9979
10250 10244 10237 10230 10224 10218 10212 10206 10200 10195 10190 10184 10179 10174 10169 10165 10161 10157 10152 10149 10145 10141 10137 10134 10130 10127 10124 10120 10117 10114 10112 10109 10107 10104 10101 10099 10096 10094 10091 10089 10086 10084 10081 10079 10077 10075 10072 10070 10068 10066 10064 10062 10059 10057 10054 10052 10050 10047 10045 10043 10040 10038 10035 10033 10031 10029 10026 10024 10022 10019 10017 10014 10012 10009 10007 10004 10002 9999 9996 9994 9991 9989 9986 9983 9980 9978
10245 10240 10234 10227 10220 10214 10208 10202 10197 10191 10186 10181 10176 10172 10167 10162 10158 10154 10150 10146 10142 10139 10135 10132 10128 10125 10122 10119 10115 10113 10110 10107 10105 10102 10100 10097 10095 10092 10090 10087 10085 10082 10080 10077 10075 10073 10071 10069 10067 10065 10063 10060 10059 10056 10054 10051 10049 10047 10044 10042 10039 10037 10035 10032 10030 10028 10025 10023 10021 10019 10016 10014 10011 10009 10007 10004 10002 9999 9997 9994 9991 9989 9986 9984 9980 9978
10242 10235 10230 10224 10217 10211 10205 10199 10193 10188 10183 10178 10174 10169 10164 10160 10156 10152 10148 10144 10140 10137 10133 10129 10126 10123 10120 10117 10114 10111 10108 10105 10103 10100 10098 10095 10093 10091 10089 10086 10084 10081 10079 10077 10074 10072 10070 10068 10065 10064 10062 10060 10058 10055 10053 10050 10048 10045 10043 10040 10039 10036 10034 10031 10029 10027 10025 10022 10020 10018 10015 10013 10010 10008 10005 10004 10001 9999 9996 9994 9990 9988 9985 9983 9980 9977